Retour au catalogue

STARLINK-3887

ActifCommunicationsVLEO
NORAD 52484·PAYLOAD·🇺🇸 United States

Lancé May 6, 2022 depuis Cape Canaveral Space Force Station

Loading…

Prochains Passages (prochaines 24 heures)

TLE

FraisSource: CelesTrak SupGP

Époque: Sep 15, 2026, 02:51 UTC

1 52484C 22049AK  26258.11923611 -.00008148  00000+0 -23322-3 0  2582
2 52484  53.1580 278.7237 0001177  84.2969 315.4809 15.35390001    15

Suivez STARLINK-3887 en temps réel avec AllMySat

Download on the App Store